Location: Unspecified
(48.8582°N, 2.2947°E)
Time: 00:47:05
(UTC+02:00)

ISS - Pass Details

Date: 27 March 2019
Orbit: 408 x 410 km, 51.6° (Epoch: 18 April)

Event Time Altitude Azimuth Distance (km) Brightness Sun altitude
Rises 20:06:31 0° 255° (WSW) 2,334 1.2 -9.4°
Reaches altitude 10° 20:08:36 10° 257° (WSW) 1,474 0.1 -9.7°
Maximum altitude 20:11:55 74° 344° (NNW) 431 -3.6 -10.2°
Enters shadow 20:15:01 11° 69° (ENE) 1,395 -1.6 -10.7°
